Time,TemperatureF,DewpointF,PressureIn,WindDirection,WindDirectionDegrees,WindSpeedMPH,WindSpeedGustMPH,Humidity,HourlyPrecipIn,Conditions,Clouds,dailyrainin,SoftwareType,DateUTC
2013-10-12 00:11:00,70.8,70.0,29.95,SSE,157,0.0,2.0,97,0.00,,,0.00,weatherlink.com 1.10,2013-10-12 05:11:00,
2013-10-12 00:26:00,70.9,70.0,29.94,SSE,155,1.0,2.0,97,0.00,,,0.00,weatherlink.com 1.10,2013-10-12 05:26:00,
2013-10-12 00:41:00,71.0,70.0,29.94,SSE,153,0.0,2.0,97,0.00,,,0.00,weatherlink.com 1.10,2013-10-12 05:41:00,
2013-10-12 00:56:00,71.0,70.0,29.94,ESE,123,0.0,2.0,97,0.00,,,0.00,weatherlink.com 1.10,2013-10-12 05:56:00,
2013-10-12 01:11:00,71.0,70.0,29.94,ESE,123,0.0,2.0,97,0.00,,,0.00,weatherlink.com 1.10,2013-10-12 06:11:00,
2013-10-12 01:26:00,71.1,70.0,29.95,ESE,123,0.0,2.0,97,0.00,,,0.00,weatherlink.com 1.10,2013-10-12 06:26:00,
2013-10-12 01:41:00,71.1,70.0,29.95,ESE,123,0.0,2.0,97,0.00,,,0.00,weatherlink.com 1.10,2013-10-12 06:41:00,
2013-10-12 01:56:00,71.4,71.0,29.95,ESE,113,0.0,3.0,98,0.00,,,0.00,weatherlink.com 1.10,2013-10-12 06:56:00,
2013-10-12 02:11:00,71.2,70.0,29.95,ESE,113,0.0,2.0,97,0.00,,,0.00,weatherlink.com 1.10,2013-10-12 07:11:00,
2013-10-12 02:26:00,71.2,71.0,29.94,SE,125,0.0,3.0,98,0.00,,,0.00,weatherlink.com 1.10,2013-10-12 07:26:00,
2013-10-12 02:41:00,71.0,70.0,29.94,SE,125,0.0,2.0,97,0.00,,,0.00,weatherlink.com 1.10,2013-10-12 07:41:00,
2013-10-12 02:56:00,70.7,70.0,29.94,SE,125,0.0,0.0,98,0.00,,,0.00,weatherlink.com 1.10,2013-10-12 07:56:00,
2013-10-12 03:11:00,70.6,70.0,29.94,SE,125,0.0,2.0,98,0.00,,,0.00,weatherlink.com 1.10,2013-10-12 08:11:00,
2013-10-12 03:26:00,70.6,70.0,29.94,SE,144,0.0,3.0,98,0.00,,,0.00,weatherlink.com 1.10,2013-10-12 08:26:00,
2013-10-12 03:41:00,70.7,70.0,29.94,SE,144,0.0,2.0,98,0.00,,,0.00,weatherlink.com 1.10,2013-10-12 08:41:00,
2013-10-12 03:56:00,70.3,69.0,29.94,SE,144,0.0,0.0,97,0.00,,,0.00,weatherlink.com 1.10,2013-10-12 08:56:00,
2013-10-12 04:11:00,70.1,69.0,29.95,SE,144,0.0,0.0,97,0.00,,,0.00,weatherlink.com 1.10,2013-10-12 09:11:00,
2013-10-12 04:26:00,69.7,69.0,29.94,SE,144,0.0,0.0,97,0.00,,,0.00,weatherlink.com 1.10,2013-10-12 09:26:00,
2013-10-12 04:41:00,69.2,68.0,29.95,SE,144,0.0,0.0,97,0.00,,,0.00,weatherlink.com 1.10,2013-10-12 09:41:00,
2013-10-12 04:56:00,68.9,68.0,29.95,SE,144,0.0,0.0,97,0.00,,,0.00,weatherlink.com 1.10,2013-10-12 09:56:00,
2013-10-12 05:11:00,68.8,68.0,29.95,SE,144,0.0,0.0,98,0.00,,,0.00,weatherlink.com 1.10,2013-10-12 10:11:00,
2013-10-12 05:26:00,68.7,68.0,29.96,SE,144,0.0,0.0,98,0.00,,,0.00,weatherlink.com 1.10,2013-10-12 10:26:00,
2013-10-12 05:41:00,68.8,68.0,29.96,SE,144,0.0,0.0,98,0.00,,,0.00,weatherlink.com 1.10,2013-10-12 10:41:00,
2013-10-12 05:56:00,68.5,68.0,29.97,SE,144,0.0,0.0,98,0.00,,,0.00,weatherlink.com 1.10,2013-10-12 10:56:00,
2013-10-12 06:11:00,68.1,68.0,29.97,SE,144,0.0,0.0,98,0.00,,,0.00,weatherlink.com 1.10,2013-10-12 11:11:00,
2013-10-12 06:26:00,68.0,68.0,29.98,SE,144,0.0,0.0,98,0.00,,,0.00,weatherlink.com 1.10,2013-10-12 11:26:00,
2013-10-12 06:41:00,67.8,67.0,29.98,SE,144,0.0,0.0,98,0.00,,,0.00,weatherlink.com 1.10,2013-10-12 11:41:00,
2013-10-12 06:56:00,68.0,68.0,29.98,SE,144,0.0,0.0,99,0.00,,,0.00,weatherlink.com 1.10,2013-10-12 11:56:00,
2013-10-12 07:11:00,67.6,67.0,29.99,SE,144,0.0,0.0,98,0.01,,,0.01,weatherlink.com 1.10,2013-10-12 12:11:00,
2013-10-12 07:26:00,67.5,67.0,29.99,SE,144,0.0,0.0,98,0.01,,,0.01,weatherlink.com 1.10,2013-10-12 12:26:00,
2013-10-12 07:41:00,68.1,68.0,30.00,SE,144,0.0,0.0,99,0.01,,,0.01,weatherlink.com 1.10,2013-10-12 12:41:00,
2013-10-12 07:57:00,70.0,70.0,30.00,SE,144,0.0,0.0,99,0.01,,,0.01,weatherlink.com 1.10,2013-10-12 12:57:00,
2013-10-12 08:12:00,71.9,72.0,30.00,SE,144,0.0,0.0,99,0.00,,,0.01,weatherlink.com 1.10,2013-10-12 13:12:00,
2013-10-12 08:27:00,73.0,73.0,30.01,ESE,121,0.0,2.0,99,0.00,,,0.01,weatherlink.com 1.10,2013-10-12 13:27:00,
2013-10-12 08:42:00,74.2,73.0,30.02,East,93,0.0,3.0,97,0.00,,,0.01,weatherlink.com 1.10,2013-10-12 13:42:00,
2013-10-12 08:57:00,75.8,75.0,30.02,ESE,111,1.0,2.0,96,0.00,,,0.01,weatherlink.com 1.10,2013-10-12 13:57:00,
2013-10-12 09:12:00,76.9,75.0,30.02,SE,140,0.0,3.0,94,0.00,,,0.01,weatherlink.com 1.10,2013-10-12 14:12:00,
2013-10-12 09:27:00,78.4,76.0,30.02,SE,136,1.0,3.0,93,0.00,,,0.01,weatherlink.com 1.10,2013-10-12 14:27:00,
2013-10-12 09:42:00,79.1,76.0,30.02,SSE,163,1.0,4.0,89,0.00,,,0.01,weatherlink.com 1.10,2013-10-12 14:42:00,
2013-10-12 09:57:00,80.1,76.0,30.02,South,169,3.0,5.0,88,0.00,,,0.01,weatherlink.com 1.10,2013-10-12 14:57:00,
2013-10-12 10:12:00,80.7,77.0,30.02,SE,142,0.0,6.0,87,0.00,,,0.01,weatherlink.com 1.10,2013-10-12 15:12:00,
2013-10-12 10:27:00,82.0,76.0,30.02,South,170,0.0,4.0,83,0.00,,,0.01,weatherlink.com 1.10,2013-10-12 15:27:00,
2013-10-12 10:42:00,82.7,76.0,30.02,SW,234,1.0,4.0,81,0.00,,,0.01,weatherlink.com 1.10,2013-10-12 15:42:00,
2013-10-12 10:57:00,83.3,76.0,30.03,South,180,1.0,4.0,79,0.00,,,0.01,weatherlink.com 1.10,2013-10-12 15:57:00,
2013-10-12 11:12:00,83.2,76.0,30.03,West,267,3.0,5.0,79,0.00,,,0.01,weatherlink.com 1.10,2013-10-12 16:12:00,
2013-10-12 11:27:00,83.8,76.0,30.03,SSW,195,2.0,4.0,78,0.00,,,0.01,weatherlink.com 1.10,2013-10-12 16:27:00,
2013-10-12 11:42:00,84.8,77.0,30.03,South,178,4.0,4.0,76,0.00,,,0.01,weatherlink.com 1.10,2013-10-12 16:42:00,
2013-10-12 11:57:00,84.5,76.0,30.03,South,188,0.0,4.0,75,0.00,,,0.01,weatherlink.com 1.10,2013-10-12 16:57:00,
2013-10-12 12:13:00,84.8,75.0,30.02,WSW,253,1.0,5.0,73,0.00,,,0.01,weatherlink.com 1.10,2013-10-12 17:13:00,
2013-10-12 12:27:00,85.6,76.0,30.02,WNW,288,0.0,4.0,74,0.00,,,0.01,weatherlink.com 1.10,2013-10-12 17:27:00,
2013-10-12 12:42:00,86.7,75.0,30.00,WSW,244,0.0,4.0,69,0.00,,,0.01,weatherlink.com 1.10,2013-10-12 17:42:00,
2013-10-12 12:57:00,87.6,76.0,30.00,WSW,251,0.0,3.0,68,0.00,,,0.01,weatherlink.com 1.10,2013-10-12 17:57:00,
2013-10-12 13:12:00,88.3,76.0,29.99,WSW,243,1.0,5.0,68,0.00,,,0.01,weatherlink.com 1.10,2013-10-12 18:12:00,
2013-10-12 13:27:00,88.4,76.0,29.98,SSE,156,1.0,4.0,66,0.00,,,0.01,weatherlink.com 1.10,2013-10-12 18:27:00,
2013-10-12 13:42:00,87.3,76.0,29.98,SE,133,2.0,4.0,70,0.00,,,0.01,weatherlink.com 1.10,2013-10-12 18:42:00,
2013-10-12 13:58:00,89.3,77.0,29.97,WNW,300,1.0,5.0,66,0.00,,,0.01,weatherlink.com 1.10,2013-10-12 18:58:00,
2013-10-12 14:13:00,89.2,75.0,29.96,SSE,159,0.0,5.0,64,0.00,,,0.01,weatherlink.com 1.10,2013-10-12 19:13:00,
2013-10-12 14:28:00,88.8,76.0,29.96,SW,234,0.0,4.0,65,0.00,,,0.01,weatherlink.com 1.10,2013-10-12 19:28:00,
2013-10-12 14:43:00,90.4,76.0,29.95,ESE,107,0.0,2.0,62,0.00,,,0.01,weatherlink.com 1.10,2013-10-12 19:43:00,
2013-10-12 14:58:00,87.0,75.0,29.95,WNW,284,3.0,10.0,68,0.00,,,0.01,weatherlink.com 1.10,2013-10-12 19:58:00,
2013-10-12 15:13:00,81.7,73.0,29.95,South,183,5.0,10.0,76,0.00,,,0.01,weatherlink.com 1.10,2013-10-12 20:13:00,
2013-10-12 15:28:00,80.1,74.0,29.95,SSE,159,3.0,9.0,81,0.00,,,0.01,weatherlink.com 1.10,2013-10-12 20:28:00,
2013-10-12 15:43:00,80.2,74.0,29.95,South,182,5.0,7.0,82,0.00,,,0.01,weatherlink.com 1.10,2013-10-12 20:43:00,
2013-10-12 15:58:00,79.6,73.0,29.95,SSE,163,7.0,8.0,81,0.00,,,0.01,weatherlink.com 1.10,2013-10-12 20:58:00,
2013-10-12 16:13:00,79.3,74.0,29.95,South,182,6.0,8.0,84,0.00,,,0.01,weatherlink.com 1.10,2013-10-12 21:13:00,
2013-10-12 16:28:00,80.5,74.0,29.95,South,173,3.0,6.0,81,0.00,,,0.01,weatherlink.com 1.10,2013-10-12 21:28:00,
2013-10-12 16:43:00,81.5,74.0,29.95,SSE,167,2.0,6.0,79,0.00,,,0.01,weatherlink.com 1.10,2013-10-12 21:43:00,
2013-10-12 16:58:00,82.1,76.0,29.95,SSE,165,5.0,7.0,81,0.00,,,0.01,weatherlink.com 1.10,2013-10-12 21:58:00,
2013-10-12 17:13:00,82.8,75.0,29.95,South,178,4.0,6.0,78,0.00,,,0.01,weatherlink.com 1.10,2013-10-12 22:13:00,
2013-10-12 17:28:00,82.9,75.0,29.95,SSE,160,2.0,6.0,77,0.00,,,0.01,weatherlink.com 1.10,2013-10-12 22:28:00,
2013-10-12 17:43:00,82.6,76.0,29.96,SSW,213,2.0,6.0,79,0.00,,,0.01,weatherlink.com 1.10,2013-10-12 22:43:00,
2013-10-12 17:58:00,82.6,75.0,29.96,South,177,2.0,5.0,78,0.00,,,0.01,weatherlink.com 1.10,2013-10-12 22:58:00,
2013-10-12 18:13:00,81.8,76.0,29.97,South,169,1.0,5.0,81,0.00,,,0.01,weatherlink.com 1.10,2013-10-12 23:13:00,
2013-10-12 18:28:00,80.8,75.0,29.98,SSE,168,2.0,4.0,83,0.00,,,0.01,weatherlink.com 1.10,2013-10-12 23:28:00,
2013-10-12 18:43:00,80.2,75.0,29.99,South,171,1.0,4.0,84,0.00,,,0.01,weatherlink.com 1.10,2013-10-12 23:43:00,
2013-10-12 18:58:00,79.7,74.0,29.99,SSE,165,1.0,4.0,83,0.00,,,0.01,weatherlink.com 1.10,2013-10-12 23:58:00,
2013-10-12 19:13:00,79.3,74.0,29.99,SSE,158,0.0,2.0,84,0.00,,,0.01,weatherlink.com 1.10,2013-10-13 00:13:00,
2013-10-12 19:28:00,79.1,74.0,30.00,South,178,0.0,3.0,84,0.00,,,0.01,weatherlink.com 1.10,2013-10-13 00:28:00,
2013-10-12 19:43:00,78.6,74.0,30.00,South,178,0.0,1.0,85,0.00,,,0.01,weatherlink.com 1.10,2013-10-13 00:43:00,
2013-10-12 19:58:00,78.5,74.0,30.00,SSE,168,1.0,5.0,86,0.00,,,0.01,weatherlink.com 1.10,2013-10-13 00:58:00,
2013-10-12 20:13:00,78.3,74.0,30.02,SW,227,4.0,5.0,87,0.00,,,0.01,weatherlink.com 1.10,2013-10-13 01:13:00,
2013-10-12 20:28:00,74.6,70.0,30.05,WNW,294,7.0,19.0,84,0.00,,,0.01,weatherlink.com 1.10,2013-10-13 01:28:00,
2013-10-12 20:43:00,71.7,70.0,30.05,NNW,329,4.0,17.0,94,0.57,,,0.58,weatherlink.com 1.10,2013-10-13 01:43:00,
2013-10-12 20:58:00,69.9,69.0,30.06,ESE,105,4.0,13.0,95,0.94,,,0.95,weatherlink.com 1.10,2013-10-13 01:58:00,
2013-10-12 21:13:00,69.3,68.0,30.06,NNW,327,2.0,11.0,95,1.11,,,1.12,weatherlink.com 1.10,2013-10-13 02:13:00,
2013-10-12 21:28:00,69.6,69.0,30.06,NE,45,2.0,10.0,96,1.36,,,1.37,weatherlink.com 1.10,2013-10-13 02:28:00,
2013-10-12 21:43:00,70.0,69.0,30.06,East,92,3.0,5.0,97,0.84,,,1.45,weatherlink.com 1.10,2013-10-13 02:43:00,
2013-10-12 21:58:00,69.9,69.0,30.07,NNE,15,2.0,4.0,97,0.55,,,1.51,weatherlink.com 1.10,2013-10-13 02:58:00,
2013-10-12 22:13:00,69.9,69.0,30.08,NE,56,1.0,3.0,97,0.42,,,1.55,weatherlink.com 1.10,2013-10-13 03:13:00,
2013-10-12 22:28:00,70.1,69.0,30.08,ENE,57,3.0,3.0,97,0.20,,,1.58,weatherlink.com 1.10,2013-10-13 03:28:00,
2013-10-12 22:43:00,70.3,69.0,30.07,East,82,0.0,5.0,97,0.14,,,1.60,weatherlink.com 1.10,2013-10-13 03:43:00,
2013-10-12 22:58:00,70.4,70.0,30.07,East,82,1.0,2.0,98,0.10,,,1.61,weatherlink.com 1.10,2013-10-13 03:58:00,
2013-10-12 23:13:00,70.5,70.0,30.07,ENE,71,0.0,3.0,98,0.07,,,1.62,weatherlink.com 1.10,2013-10-13 04:13:00,
2013-10-12 23:28:00,70.6,70.0,30.07,East,82,1.0,3.0,98,0.04,,,1.62,weatherlink.com 1.10,2013-10-13 04:28:00,
2013-10-12 23:43:00,70.8,70.0,30.07,East,96,2.0,6.0,98,0.03,,,1.63,weatherlink.com 1.10,2013-10-13 04:43:00,
2013-10-12 23:58:00,70.7,70.0,30.06,East,99,0.0,3.0,98,0.02,,,1.63,weatherlink.com 1.10,2013-10-13 04:58:00,